Погода Полярный

Хотите узнать прогноз погоды Полярный? Тогда Вам сюда: Погода Полярный

Поиск расширенной информации на нашем сайте:

Полезная информация:

Новости сайта



02.01.2020
Опубликован Долгосрочный прогноз погоды по городам России и ближнего зарубежья на январь 2020 года.
Карты: Прогноз на январь и февраль 2020 года, Сравнение прогнозируемой аномалии приземной температуры воздуха на январь 2020 года по разным моделям.




Погода Полярный - сегодня

Время (UTC), дата Ветер
(°,м/с) 
Видим.   Явления Облачность Т
(°С)
Тd
(°С)
f(%) Тe
(°С)
Pmin
(гПа)
dP
(гПа)
Po
(мм)
O2
(г/м3)
Тmin Tmax R s Состояние
почвы
18 29.11.20 нст () 20000 м  {снег}  10/0 средняя, верхняя 
[Ac trans|Ci fib]
-18.5 -20.4 85 -19  1025.1  -1.8  719  312           
21 29.11.20 нст () 20000 м    10/0 средняя, верхняя 
[Ac trans|Ci fib]
-18 -19.9 85 -18  1024.5  -0.5  719  312           
00 30.11.20 нст () 20000 м  [диам. изморози 18 мм]  10/0 средняя, верхняя 
[Ac trans|Ci fib]
-19 -21.6 80 -19  1023.4  -1.3  718  312  -19.6    0.2  36  равномерный
сухой снег
100% 
03 30.11.20 нст () 20000 м    8/0 средняя, верхняя 
[Ac trans|Ci fib]
-19.2 -21.1 85 -19  1022.3  -1  717  312           
06 30.11.20 нст () 20000 м    10/0 средняя, верхняя 
[Ac trans|Ci fib]
-18.6 -20.5 85 -19  1021.1  -1  716  311           
09 30.11.20 нст () 20000 м    8/0 средняя, верхняя 
[Ac trans|Ci fib]
-18.7 -20.6 85 -19  1019.9  -1.3  715  311           
12 30.11.20 нст () 20000 м  слаб. снег  9/5 1200 м средняя 
[Frnb|As op]
-16 -17.3 90 -16  1018.1  -0.9  715  307    -16  0.0     
15 30.11.20 нст () 20000 м  {снег}  8/0 средняя, верхняя 
[Ac trans|Ci fib]
-18.1 -19.3 90 -18  1017.8  -0.8  714  310           
18 30.11.20 нст () 20000 м  {снег}  10/0 верхняя 
[Cs]
-18.4 -19.6 90 -19  1016.9  -1  713  310           
21 30.11.20 //0 (С) 20000 м  слаб. снег  10/5 480 м средняя 
[Frnb|As op]
-15.8 -17.1 90 -16  1015.1  -0.9  713  306           
00 01.12.20 270 (З) 4000 м  слаб. снег [диам. изморози 18 мм]  10/6 300 м средняя 
[Frnb|As op]
-14 -16 85 -16  1013.5  -1.1  712  304  -18.6    0.2  37  равномерный
сухой снег
100% 
03 01.12.20 250 (З) 20000 м  в посл. час снег  10/0 средняя, верхняя 
[Ac trans|Ci fib]
-14 -15.3 90 -14  1012.5  -1.2  711  303           
06 01.12.20 290 (З) 4000 м  слаб. снег  10/6 480 м средняя 
[Frnb|As op]
-11.8 -13.1 90 -12  1010.6  -1.1  710  300           
09 01.12.20 270 (З) 2000 м  слаб. снег  10/6 300 м средняя 
[Frnb|As op]
-11.7 -13 90 -14  1009.2  -1.1  709  300           
12 01.12.20 280 (З) 4{10}  4000 м  слаб. ливневой снег  10/8 540 м кучево-дожд., средняя 
[Cb cap|Ac und]
-10.7 -12 90 -15  1010.8  1.7  711  299    -10.5  0.7     
15 01.12.20 270 (З) 10 км  слаб. ливневой снег  10/8 570 м кучево-дожд., средняя 
[Cb cap|Ac und]
-9 -10.1 92 -12  1011.6  1.1  711  297           
21 01.12.20 260 (З) 4{10}  10 км  слаб. ливневой снег  10/8 500 м кучево-дожд., средняя 
[Cb cap|Ac und]
-8.6 -9.7 92 -12  1008.5  -2.1  709  296           
00 02.12.20 260 (З) 6-10{11}  4000 м  слаб. ливневой снег  10/8 600 м кучево-дожд., средняя 
[Cb cap|Ac und]
-9.5 -10.7 91 -15  1007  -1.7  708  297  -10.8    0.6  37  равномерный
сухой снег
100% 
03 02.12.20 260 (З) 5{11}  4000 м  слаб. снег{ливн. осадки}  10/5 600 м средняя, верхняя 
[Frnb|As op|Cs]
-10 -11.3 90 -15  1005.8  -1.1  707  297           
06 02.12.20 270 (З) 5-10{13}  4000 м  слаб. снег{ливн. осадки}  10/5 300 м средняя 
[Frnb|As op]
-8.8 -9.9 92 -13  1005.5  -0.1  707  295           
09 02.12.20 260 (З) 5-10{12}  4000 м  слаб. снег  10/6 600 м средняя 
[Frnb|As op]
-8.4 -9.5 92 -13  1006  0.5  708  295           
12 02.12.20 270 (З) 4{10}  10 км  слаб. ливневой снег  10/5 800 м кучево-дожд., средняя 
[Cb cap|As op]
-8.7 -9.8 92 -12  1005.1  -0.9  707  295    -7.5     
15 02.12.20 250 (З) 6-10{11}  20000 м  позёмок{ливн. осадки}  10/6 800 м средняя 
[Sc|Ac und]
-8.8 -9.5 95 -14  1003.4  -1.6  706  295           
18 02.12.20 250 (З) 3{10}  20000 м  позёмок{ливн. осадки}  10/6 600 м средняя 
[Sc|Ac und]
-8.9 -9.6 95 -12  1001.5  -1.9  704  294           
21 02.12.20 250 (З) 2{10}  10 км  слаб. ливневой снег  10/6 800 м кучево-дожд., средняя 
[Cb cap|Ac und]
-8.8 -9.9 92 -10  998.5  -2.8  702  293           
Время (UTC), дата Ветер
(°,м/с) 
Видим.   Явления Облачность Т
(°С)
Тd
(°С)
f(%) Тe
(°С)
Pmin
(гПа)
dP
(гПа)
Po
(мм)
O2
(г/м3)
Тmin Tmax R s Состояние
почвы

Для получения пояснительной информации подведите курсор к названию столбца.

ПОГОДА Полярный - архив

Всё, что Вы хотите узнать о погоде Полярный - удобно и подробно!

Выберите нужную дату (начиная с 1 января 2019* года) и нажмите кнопку "Найти".
Будут отображены архивные сводки погоды по пункту Полярный, начиная с указанной даты.


Отображать данные в формате CSV (для использования в таблицах Excel)


Внимание! Наш архив погоды предназначен исключительно для личного некоммерческого использования в познавательных целях. Если Вам необходимы официальные справки о состоянии погоды (для производственных, юридических, коммерческих и т.п. целей), обращайтесь в органы Росгидромета.

*Примечание: данная дата относится к архиву по метеостанциям СССР (Россия, СНГ, Балтия).
Архив по метеостанциям Зарубежной Европы и Азии (кроме Китая) хранится 10 дней, по другим регионам земного шара (Китай, Африка, Америка, Австралия, Океания) - 1 день.

Полярный - район местоположения метеостанции


Название, широта, долгота, высота метеостанции:
Полярный 66.5°ш. 112°д. 509 м над ур. моря [Российская Федерация]

Дополнительная информация

В oтличие oт бoльшинства пoгoдных сайтoв мы публикуем пoдрoбную метеoинфoрмацию в детальнoм прoфессиoнальнoм фoрмате.

Характеристики температуры и влажнoсти вoздуха измеряются на высoте 2 м в тени вдали oт зданий и деревьев.
Скoрoсть ветра измеряется на высoте 10 м (на урoвне рoста челoвека скoрoсть ветра ниже в 1.5-2 раза). Если метеoстанция нахoдится в гoрoде или в лесу, тo скoрoсть ветра занижена на 2-4 м/с пo сравнению с oткрытым местoм. Скoрoсть ветра над акватoриями крупных рек и oзёр, а также на вершинах хoлмoв на 2-5 м/с выше, чем в oбычных услoвиях.
Атмoсфернoе давление в разных тoчках местнoсти мoжет значительнo oтличаться oт давления на метеoстанции, в зависимoсти oт услoвий рельефа (при пoдъёме на 10 м давление пoнижается примернo на 1 мм рт.ст.).